Location: Cisewo
(53.3833°N, 14.9000°E)
Time: 13:36:48
(UTC+00:00)

USA 229 - Pass Details

Date: 30 July 2021
Orbit: 956 x 1256 km, 63.5° (Epoch: 08 August)

Event Time Altitude Azimuth Distance (km) Brightness Sun altitude
Rises 19:38:07 0° 303° (WNW) 3,857 9.0 -5.5°
Reaches altitude 10° 19:40:49 10° 309° (NW) 2,944 7.9 -5.8°
Maximum altitude 19:47:36 48° 23° (NNE) 1,469 4.6 -6.5°
Drops below altitude 10° 19:54:52 10° 97° (E) 3,144 5.7 -7.3°
Enters shadow 19:57:11 - 102° (ESE) 3,917 6.1 -7.5°
